Poughkeepsie, NY

5:43 AM EST on February 19, 2018 (GMT -0500)
Dutchess County

Weather History for KPOU - November, 2012

Change the Weather History Date:

Friday, November 9, 2012

  Actual Average Record
Temperature  
Mean Temperature 41 °F 44 °F  
Max Temperature 56 °F 55 °F 75 °F (1975)
Min Temperature 26 °F 32 °F 14 °F (1992)
Degree Days  
Heating Degree Days 24 21  
Month to date heating degree days 197 181  
Since 1 July heating degree days 606 757  
Cooling Degree Days 0 0  
Month to date cooling degree days 0 0  
Year to date cooling degree days 895 672  
Moisture  
Dew Point 24 °F    
Average Humidity 54    
Maximum Humidity 81    
Minimum Humidity 26    
Precipitation  
Precipitation 0.00 in 0.11 in 0.60 in (2005)
Month to date precipitation 0.05 1.04  
Year to date precipitation 31.62 40.57  
Sea Level Pressure  
Sea Level Pressure 30.05 in    
Wind  
Wind Speed 3 mph (NW)    
Max Wind Speed 14 mph    
Max Gust Speed 17 mph    
Visibility 10 miles    
Events      
T = Trace of Precipitation, MM = Missing Value Source: NWS Daily Summary

Daily Weather History Graph

Daily Weather History Graph

Search for Another Location

Airport or City:

Trip Planner

Search our weather history database for the weather conditions in past years. The results will help you decide how hot, cold, wet, or windy it might be!

Date:

Astronomy

Nov. 09, 2012 Rise Set
Actual Time 6:37 AM EST 4:40 PM EST
Civil Twilight 6:08 AM EST 5:09 PM EST
Nautical Twilight 5:35 AM EST 5:43 PM EST
Astronomical Twilight 5:02 AM EST 6:15 PM EST
Moon 1:30 AM EST (11/9) 1:55 PM EST (11/9)
Length of Visible Light 11h 01m
Length of Day
10h 02m
Waning Crescent, 23% of the Moon is Illuminated
Nov 9
Waning Crescent
Nov 13
New
Nov 20
First Quarter
Nov 28
Full
Dec 6
Last Quarter

Hourly Weather History & Observations

Time (EST) Temp. Windchill Dew Point Humidity Pressure Visibility Wind Dir Wind Speed Gust Speed Precip Events Conditions
12:53 AM 37.0 °F - 23.0 °F 57% 29.92 in 10.0 mi Calm Calm - N/A   Scattered Clouds
1:53 AM 35.1 °F 30.1 °F 23.0 °F 61% 29.94 in 10.0 mi West 5.8 mph - N/A   Clear
2:53 AM 34.0 °F 28.8 °F 21.9 °F 61% 29.94 in 10.0 mi WNW 5.8 mph - N/A   Clear
3:53 AM 30.0 °F - 21.0 °F 69% 29.96 in 10.0 mi Calm Calm - N/A   Clear
4:53 AM 27.0 °F - 21.0 °F 78% 29.97 in 10.0 mi Calm Calm - N/A   Clear
5:53 AM 28.0 °F - 23.0 °F 81% 29.99 in 10.0 mi Calm Calm - N/A   Clear
6:53 AM 27.0 °F - 21.9 °F 81% 30.01 in 10.0 mi Calm Calm - N/A   Clear
7:53 AM 30.9 °F - 25.0 °F 79% 30.03 in 10.0 mi Calm Calm - N/A   Clear
8:53 AM 39.0 °F - 21.0 °F 49% 30.04 in 10.0 mi Calm Calm - N/A   Clear
9:53 AM 45.0 °F - 19.9 °F 37% 30.06 in 10.0 mi Calm Calm - N/A   Clear
10:53 AM 48.0 °F - 19.0 °F 32% 30.07 in 10.0 mi North 9.2 mph - N/A   Clear
11:53 AM 51.1 °F - 18.0 °F 27% 30.04 in 10.0 mi North 4.6 mph - N/A   Clear
12:53 PM 53.1 °F - 21.0 °F 29% 30.03 in 10.0 mi NW 5.8 mph - N/A   Clear
1:53 PM 55.0 °F - 21.0 °F 27% 30.03 in 10.0 mi NNW 8.1 mph - N/A   Clear
2:53 PM 55.9 °F - 21.0 °F 26% 30.04 in 10.0 mi NNW 8.1 mph - N/A   Clear
3:53 PM 53.1 °F - 23.0 °F 31% 30.05 in 10.0 mi NW 10.4 mph - N/A   Mostly Cloudy
4:53 PM 48.0 °F - 24.1 °F 39% 30.07 in 10.0 mi NW 4.6 mph - N/A   Clear
5:53 PM 48.0 °F - 27.0 °F 44% 30.11 in 10.0 mi NW 4.6 mph - N/A   Clear
6:53 PM 46.0 °F - 28.0 °F 50% 30.13 in 10.0 mi Calm Calm - N/A   Clear
7:53 PM 45.0 °F - 30.0 °F 56% 30.14 in 10.0 mi Calm Calm - N/A   Clear
8:53 PM 43.0 °F - 30.0 °F 60% 30.14 in 10.0 mi Calm Calm - N/A   Overcast
9:53 PM 43.0 °F 41.3 °F 30.9 °F 62% 30.15 in 10.0 mi SW 3.5 mph - N/A   Overcast
10:53 PM 41.0 °F - 32.0 °F 70% 30.16 in 10.0 mi Calm Calm - N/A   Overcast
11:53 PM 44.1 °F - 33.1 °F 65% 30.17 in 10.0 mi Calm Calm - N/A   Overcast